Time,TemperatureF,DewpointF,PressureIn,WindDirection,WindDirectionDegrees,WindSpeedMPH,WindSpeedGustMPH,Humidity,HourlyPrecipIn,Conditions,Clouds,dailyrainin,SoftwareType,DateUTC
2013-07-19 00:07:00,79.1,75.2,30.09,SSE,151,4.0,5.0,88,0.00,,,0.00,Weather View 32 v70,2013-07-19 04:07:00,
2013-07-19 00:09:00,78.9,74.7,30.09,SSE,149,1.0,5.0,87,0.00,,,0.00,Weather View 32 v70,2013-07-19 04:09:00,
2013-07-19 00:19:00,78.7,74.5,30.09,SSE,163,4.0,7.0,87,0.00,,,0.00,Weather View 32 v70,2013-07-19 04:19:00,
2013-07-19 00:29:00,78.7,74.8,30.09,SE,146,8.0,10.0,88,0.00,,,0.00,Weather View 32 v70,2013-07-19 04:29:00,
2013-07-19 00:39:00,78.5,74.3,30.09,SSE,150,6.0,10.0,87,0.00,,,0.00,Weather View 32 v70,2013-07-19 04:39:00,
2013-07-19 00:49:00,78.3,74.1,30.09,SE,146,4.0,10.0,87,0.00,,,0.00,Weather View 32 v70,2013-07-19 04:49:00,
2013-07-19 00:59:00,78.1,73.9,30.09,SSE,161,5.0,10.0,87,0.00,,,0.00,Weather View 32 v70,2013-07-19 04:59:00,
2013-07-19 01:07:00,78.1,73.9,30.09,SSE,161,5.0,10.0,87,0.00,,,0.00,Weather View 32 v70,2013-07-19 05:07:00,
2013-07-19 01:09:00,77.6,73.7,30.09,SSE,165,5.0,10.0,88,0.00,,,0.00,Weather View 32 v70,2013-07-19 05:09:00,
2013-07-19 01:19:00,77.1,73.6,30.09,South,190,2.0,10.0,89,0.00,,,0.00,Weather View 32 v70,2013-07-19 05:19:00,
2013-07-19 01:29:00,76.8,73.0,30.09,SSE,167,0.0,9.0,88,0.00,,,0.00,Weather View 32 v70,2013-07-19 05:29:00,
2013-07-19 01:39:00,76.6,73.4,30.08,SE,142,4.0,9.0,90,0.00,,,0.00,Weather View 32 v70,2013-07-19 05:39:00,
2013-07-19 01:49:00,76.5,73.3,30.08,SSE,168,0.0,7.0,90,0.00,,,0.00,Weather View 32 v70,2013-07-19 05:49:00,
2013-07-19 01:59:00,76.2,73.0,30.08,South,182,0.0,6.0,90,0.00,,,0.00,Weather View 32 v70,2013-07-19 05:59:00,
2013-07-19 02:08:00,76.2,73.0,30.08,South,182,0.0,6.0,90,0.00,,,0.00,Weather View 32 v70,2013-07-19 06:08:00,
2013-07-19 02:09:00,75.7,72.5,30.08,South,182,0.0,6.0,90,0.00,,,0.00,Weather View 32 v70,2013-07-19 06:09:00,
2013-07-19 02:19:00,75.5,72.3,30.08,South,182,0.0,4.0,90,0.00,,,0.00,Weather View 32 v70,2013-07-19 06:19:00,
2013-07-19 02:29:00,75.5,72.7,30.07,South,182,0.0,4.0,91,0.00,,,0.00,Weather View 32 v70,2013-07-19 06:29:00,
2013-07-19 02:39:00,75.3,72.5,30.07,South,182,0.0,4.0,91,0.00,,,0.00,Weather View 32 v70,2013-07-19 06:39:00,
2013-07-19 02:49:00,75.4,72.9,30.07,South,182,0.0,3.0,92,0.00,,,0.00,Weather View 32 v70,2013-07-19 06:49:00,
2013-07-19 02:59:00,75.3,72.5,30.07,South,182,0.0,3.0,91,0.00,,,0.00,Weather View 32 v70,2013-07-19 06:59:00,
2013-07-19 03:09:00,75.3,72.5,30.07,South,182,0.0,3.0,91,0.00,,,0.00,Weather View 32 v70,2013-07-19 07:09:00,
2013-07-19 03:19:00,75.0,72.5,30.07,South,182,0.0,3.0,92,0.00,,,0.00,Weather View 32 v70,2013-07-19 07:19:00,
2013-07-19 03:29:00,75.0,72.5,30.07,South,182,0.0,3.0,92,0.00,,,0.00,Weather View 32 v70,2013-07-19 07:29:00,
2013-07-19 03:39:00,74.7,72.2,30.07,South,182,0.0,3.0,92,0.00,,,0.00,Weather View 32 v70,2013-07-19 07:39:00,
2013-07-19 03:49:00,75.0,72.8,30.06,South,182,0.0,2.0,93,0.00,,,0.00,Weather View 32 v70,2013-07-19 07:49:00,
2013-07-19 03:59:00,74.7,72.2,30.07,South,182,0.0,2.0,92,0.00,,,0.00,Weather View 32 v70,2013-07-19 07:59:00,
2013-07-19 04:09:00,74.7,72.2,30.07,South,182,0.0,2.0,92,0.00,,,0.00,Weather View 32 v70,2013-07-19 08:09:00,
2013-07-19 04:19:00,74.4,72.2,30.06,South,182,0.0,0.0,93,0.00,,,0.00,Weather View 32 v70,2013-07-19 08:19:00,
2013-07-19 04:29:00,74.5,72.3,30.06,South,182,0.0,0.0,93,0.00,,,0.00,Weather View 32 v70,2013-07-19 08:29:00,
2013-07-19 04:39:00,74.6,72.4,30.06,South,182,0.0,0.0,93,0.00,,,0.00,Weather View 32 v70,2013-07-19 08:39:00,
2013-07-19 04:49:00,74.8,72.6,30.06,South,182,0.0,0.0,93,0.00,,,0.00,Weather View 32 v70,2013-07-19 08:49:00,
2013-07-19 04:59:00,74.7,72.5,30.06,South,182,0.0,0.0,93,0.00,,,0.00,Weather View 32 v70,2013-07-19 08:59:00,
2013-07-19 05:10:00,75.0,73.1,30.06,South,185,0.0,2.0,94,0.00,,,0.00,Weather View 32 v70,2013-07-19 09:10:00,
2013-07-19 05:19:00,75.3,73.1,30.06,SSE,168,2.0,2.0,93,0.00,,,0.00,Weather View 32 v70,2013-07-19 09:19:00,
2013-07-19 05:29:00,75.7,73.5,30.06,SSE,163,0.0,3.0,93,0.00,,,0.00,Weather View 32 v70,2013-07-19 09:29:00,
2013-07-19 05:39:00,75.6,73.4,30.06,SSE,152,1.0,3.0,93,0.00,,,0.00,Weather View 32 v70,2013-07-19 09:39:00,
2013-07-19 05:49:00,75.6,73.4,30.06,SSE,153,1.0,3.0,93,0.00,,,0.00,Weather View 32 v70,2013-07-19 09:49:00,
2013-07-19 05:59:00,75.4,73.2,30.07,SSE,150,0.0,4.0,93,0.00,,,0.00,Weather View 32 v70,2013-07-19 09:59:00,
2013-07-19 06:09:00,75.2,73.0,30.06,SSE,153,0.0,4.0,93,0.00,,,0.00,Weather View 32 v70,2013-07-19 10:09:00,
2013-07-19 06:19:00,75.1,73.2,30.06,SSE,160,2.0,5.0,94,0.00,,,0.00,Weather View 32 v70,2013-07-19 10:19:00,
2013-07-19 06:29:00,75.1,73.2,30.06,SSE,159,0.0,5.0,94,0.00,,,0.00,Weather View 32 v70,2013-07-19 10:29:00,
2013-07-19 06:39:00,75.1,73.2,30.06,SSE,155,0.0,5.0,94,0.00,,,0.00,Weather View 32 v70,2013-07-19 10:39:00,
2013-07-19 06:49:00,75.4,73.5,30.06,SE,137,2.0,5.0,94,0.00,,,0.00,Weather View 32 v70,2013-07-19 10:49:00,
2013-07-19 06:59:00,75.0,72.8,30.07,SE,143,1.0,5.0,93,0.00,,,0.00,Weather View 32 v70,2013-07-19 10:59:00,
2013-07-19 07:09:00,74.8,72.6,30.08,SE,144,0.0,5.0,93,0.00,,,0.00,Weather View 32 v70,2013-07-19 11:09:00,
2013-07-19 07:11:00,74.8,72.6,30.08,SE,144,0.0,5.0,93,0.00,,,0.00,Weather View 32 v70,2013-07-19 11:11:00,
2013-07-19 07:19:00,74.8,72.9,30.08,SSE,149,0.0,3.0,94,0.00,,,0.00,Weather View 32 v70,2013-07-19 11:19:00,
2013-07-19 07:29:00,74.8,72.9,30.08,SSE,147,0.0,3.0,94,0.00,,,0.00,Weather View 32 v70,2013-07-19 11:29:00,
2013-07-19 07:39:00,74.7,72.8,30.08,SE,146,2.0,3.0,94,0.00,,,0.00,Weather View 32 v70,2013-07-19 11:39:00,
2013-07-19 07:49:00,75.3,73.4,30.09,SE,146,0.0,3.0,94,0.00,,,0.00,Weather View 32 v70,2013-07-19 11:49:00,
2013-07-19 07:59:00,75.3,73.4,30.09,SSE,151,0.0,5.0,94,0.00,,,0.00,Weather View 32 v70,2013-07-19 11:59:00,
2013-07-19 08:09:00,75.2,73.0,30.10,SSE,157,1.0,5.0,93,0.00,,,0.00,Weather View 32 v70,2013-07-19 12:09:00,
2013-07-19 08:11:00,75.2,73.0,30.10,SSE,157,1.0,5.0,93,0.00,,,0.00,Weather View 32 v70,2013-07-19 12:11:00,
2013-07-19 08:19:00,75.4,73.2,30.10,SSE,153,0.0,5.0,93,0.00,,,0.00,Weather View 32 v70,2013-07-19 12:19:00,
2013-07-19 08:29:00,75.8,73.6,30.10,SSE,153,1.0,5.0,93,0.00,,,0.00,Weather View 32 v70,2013-07-19 12:29:00,
2013-07-19 08:39:00,76.5,74.0,30.11,SSE,155,0.0,5.0,92,0.00,,,0.00,Weather View 32 v70,2013-07-19 12:39:00,
2013-07-19 08:49:00,76.7,73.9,30.11,SSE,157,3.0,6.0,91,0.00,,,0.00,Weather View 32 v70,2013-07-19 12:49:00,
2013-07-19 08:59:00,76.7,73.5,30.11,SSE,164,2.0,7.0,90,0.00,,,0.00,Weather View 32 v70,2013-07-19 12:59:00,
2013-07-19 09:09:00,76.9,73.7,30.11,South,178,0.0,7.0,90,0.00,,,0.00,Weather View 32 v70,2013-07-19 13:09:00,
2013-07-19 09:12:00,76.9,73.7,30.11,South,178,0.0,7.0,90,0.00,,,0.00,Weather View 32 v70,2013-07-19 13:12:00,
2013-07-19 09:19:00,77.7,74.5,30.11,SSE,150,0.0,7.0,90,0.00,,,0.00,Weather View 32 v70,2013-07-19 13:19:00,
2013-07-19 09:29:00,78.1,74.2,30.11,SSE,154,2.0,7.0,88,0.00,,,0.00,Weather View 32 v70,2013-07-19 13:29:00,
2013-07-19 09:39:00,79.0,75.1,30.11,SE,131,4.0,7.0,88,0.00,,,0.00,Weather View 32 v70,2013-07-19 13:39:00,
2013-07-19 09:49:00,79.5,74.6,30.12,SSE,147,2.0,10.0,85,0.00,,,0.00,Weather View 32 v70,2013-07-19 13:49:00,
2013-07-19 09:59:00,80.0,74.7,30.12,SE,139,6.0,11.0,84,0.00,,,0.00,Weather View 32 v70,2013-07-19 13:59:00,
2013-07-19 10:09:00,80.1,74.8,30.12,South,171,6.0,11.0,84,0.00,,,0.00,Weather View 32 v70,2013-07-19 14:09:00,
2013-07-19 10:19:00,79.9,74.6,30.12,SE,135,6.0,11.0,84,0.00,,,0.00,Weather View 32 v70,2013-07-19 14:19:00,
2013-07-19 10:29:00,80.2,74.2,30.12,SSE,163,6.0,11.0,82,0.00,,,0.00,Weather View 32 v70,2013-07-19 14:29:00,
2013-07-19 10:39:00,80.6,74.9,30.12,SSE,158,7.0,11.0,83,0.00,,,0.00,Weather View 32 v70,2013-07-19 14:39:00,
2013-07-19 10:49:00,80.7,74.7,30.11,SSE,155,8.0,11.0,82,0.00,,,0.00,Weather View 32 v70,2013-07-19 14:49:00,
2013-07-19 10:59:00,81.1,75.4,30.12,SSE,158,2.0,11.0,83,0.00,,,0.00,Weather View 32 v70,2013-07-19 14:59:00,
2013-07-19 11:09:00,81.6,74.8,30.11,SSE,153,4.0,10.0,80,0.00,,,0.00,Weather View 32 v70,2013-07-19 15:09:00,
2013-07-19 11:13:00,81.6,74.8,30.11,SSE,153,4.0,10.0,80,0.00,,,0.00,Weather View 32 v70,2013-07-19 15:13:00,
2013-07-19 11:19:00,82.3,74.3,30.11,South,171,3.0,13.0,77,0.00,,,0.00,Weather View 32 v70,2013-07-19 15:19:00,
2013-07-19 11:29:00,82.5,74.5,30.11,SSE,166,1.0,13.0,77,0.00,,,0.00,Weather View 32 v70,2013-07-19 15:29:00,
2013-07-19 11:39:00,82.9,74.1,30.11,SSE,150,3.0,13.0,75,0.00,,,0.00,Weather View 32 v70,2013-07-19 15:39:00,
2013-07-19 11:49:00,83.1,74.7,30.11,SE,126,6.0,13.0,76,0.00,,,0.00,Weather View 32 v70,2013-07-19 15:49:00,
2013-07-19 11:59:00,83.4,74.6,30.11,SSE,154,7.0,14.0,75,0.00,,,0.00,Weather View 32 v70,2013-07-19 15:59:00,
2013-07-19 12:09:00,83.3,74.1,30.10,WSW,258,1.0,14.0,74,0.00,,,0.00,Weather View 32 v70,2013-07-19 16:09:00,
2013-07-19 12:13:00,83.3,74.1,30.10,WSW,258,1.0,14.0,74,0.00,,,0.00,Weather View 32 v70,2013-07-19 16:13:00,
2013-07-19 12:19:00,83.7,74.1,30.10,SSE,156,1.0,14.0,73,0.00,,,0.00,Weather View 32 v70,2013-07-19 16:19:00,
2013-07-19 12:29:00,83.5,73.9,30.10,South,188,0.0,14.0,73,0.00,,,0.00,Weather View 32 v70,2013-07-19 16:29:00,
2013-07-19 12:39:00,83.9,74.3,30.10,SSE,147,4.0,14.0,73,0.00,,,0.00,Weather View 32 v70,2013-07-19 16:39:00,
2013-07-19 12:49:00,84.4,74.8,30.09,SE,146,6.0,14.0,73,0.00,,,0.00,Weather View 32 v70,2013-07-19 16:49:00,
2013-07-19 12:59:00,84.6,73.7,30.09,SSE,156,4.0,12.0,70,0.00,,,0.00,Weather View 32 v70,2013-07-19 16:59:00,
2013-07-19 13:09:00,84.8,73.9,30.09,South,177,7.0,12.0,70,0.00,,,0.00,Weather View 32 v70,2013-07-19 17:09:00,
2013-07-19 13:15:00,84.8,73.9,30.09,South,177,7.0,12.0,70,0.00,,,0.00,Weather View 32 v70,2013-07-19 17:15:00,
2013-07-19 13:29:00,84.6,74.1,30.08,SE,143,6.0,14.0,71,0.00,,,0.00,Weather View 32 v70,2013-07-19 17:29:00,
2013-07-19 13:39:00,85.4,75.3,30.08,WSW,257,2.0,14.0,72,0.00,,,0.00,Weather View 32 v70,2013-07-19 17:39:00,
2013-07-19 13:49:00,85.3,74.8,30.08,SSE,147,2.0,14.0,71,0.00,,,0.00,Weather View 32 v70,2013-07-19 17:49:00,
2013-07-19 13:59:00,85.3,73.9,30.07,SSE,165,7.0,14.0,69,0.00,,,0.00,Weather View 32 v70,2013-07-19 17:59:00,
2013-07-19 14:09:00,85.4,74.5,30.07,South,173,8.0,15.0,70,0.00,,,0.00,Weather View 32 v70,2013-07-19 18:09:00,
2013-07-19 14:15:00,85.4,74.5,30.07,South,173,8.0,15.0,70,0.00,,,0.00,Weather View 32 v70,2013-07-19 18:15:00,
2013-07-19 14:19:00,85.4,74.5,30.06,SSE,162,4.0,15.0,70,0.00,,,0.00,Weather View 32 v70,2013-07-19 18:19:00,
2013-07-19 14:29:00,85.6,74.6,30.06,SSE,161,5.0,15.0,70,0.00,,,0.00,Weather View 32 v70,2013-07-19 18:29:00,
2013-07-19 14:39:00,85.7,74.7,30.06,SE,126,1.0,15.0,70,0.00,,,0.00,Weather View 32 v70,2013-07-19 18:39:00,
2013-07-19 14:49:00,85.8,75.3,30.06,South,170,4.0,15.0,71,0.00,,,0.00,Weather View 32 v70,2013-07-19 18:49:00,
2013-07-19 14:59:00,85.8,74.0,30.05,South,175,5.0,15.0,68,0.00,,,0.00,Weather View 32 v70,2013-07-19 18:59:00,
2013-07-19 15:09:00,85.7,74.3,30.05,South,169,4.0,11.0,69,0.00,,,0.00,Weather View 32 v70,2013-07-19 19:09:00,
2013-07-19 15:16:00,85.7,74.3,30.05,South,169,4.0,11.0,69,0.00,,,0.00,Weather View 32 v70,2013-07-19 19:16:00,
2013-07-19 15:19:00,84.5,74.4,30.05,South,177,4.0,11.0,72,0.00,,,0.00,Weather View 32 v70,2013-07-19 19:19:00,
2013-07-19 15:29:00,83.6,74.8,30.06,SE,145,12.0,19.0,75,0.00,,,0.00,Weather View 32 v70,2013-07-19 19:29:00,
2013-07-19 15:39:00,79.3,73.3,30.06,SSE,153,12.0,21.0,82,0.04,,,0.04,Weather View 32 v70,2013-07-19 19:39:00,
2013-07-19 15:49:00,77.0,73.2,30.07,South,185,11.0,21.0,88,0.05,,,0.05,Weather View 32 v70,2013-07-19 19:49:00,
2013-07-19 15:59:00,75.1,72.6,30.07,SSE,163,4.0,21.0,92,0.06,,,0.06,Weather View 32 v70,2013-07-19 19:59:00,
2013-07-19 16:09:00,75.5,72.3,30.06,SSE,166,3.0,21.0,90,0.07,,,0.07,Weather View 32 v70,2013-07-19 20:09:00,
2013-07-19 16:16:00,75.5,72.3,30.06,SSE,166,3.0,21.0,90,0.07,,,0.07,Weather View 32 v70,2013-07-19 20:16:00,
2013-07-19 16:19:00,76.2,73.0,30.05,South,169,4.0,21.0,90,0.07,,,0.07,Weather View 32 v70,2013-07-19 20:19:00,
2013-07-19 16:29:00,77.3,73.4,30.04,SSE,158,5.0,21.0,88,0.08,,,0.08,Weather View 32 v70,2013-07-19 20:29:00,
2013-07-19 16:39:00,77.8,73.6,30.04,South,186,3.0,17.0,87,0.04,,,0.08,Weather View 32 v70,2013-07-19 20:39:00,
2013-07-19 16:49:00,77.6,74.1,30.05,WNW,291,1.0,11.0,89,0.03,,,0.08,Weather View 32 v70,2013-07-19 20:49:00,
2013-07-19 16:59:00,77.4,74.2,30.05,WSW,256,0.0,10.0,90,0.02,,,0.08,Weather View 32 v70,2013-07-19 20:59:00,
2013-07-19 17:09:00,77.9,74.4,30.05,SSE,162,0.0,10.0,89,0.01,,,0.08,Weather View 32 v70,2013-07-19 21:09:00,
2013-07-19 17:17:00,77.9,74.4,30.05,SSE,162,0.0,10.0,89,0.01,,,0.08,Weather View 32 v70,2013-07-19 21:17:00,
2013-07-19 17:19:00,78.7,74.5,30.06,ESE,105,1.0,10.0,87,0.01,,,0.08,Weather View 32 v70,2013-07-19 21:19:00,
2013-07-19 17:29:00,79.0,74.8,30.07,SE,130,1.0,10.0,87,0.00,,,0.08,Weather View 32 v70,2013-07-19 21:29:00,
2013-07-19 17:39:00,78.5,74.3,30.06,SSE,166,1.0,8.0,87,0.00,,,0.08,Weather View 32 v70,2013-07-19 21:39:00,
2013-07-19 17:49:00,78.4,74.9,30.06,SE,145,4.0,8.0,89,0.00,,,0.08,Weather View 32 v70,2013-07-19 21:49:00,
2013-07-19 17:59:00,78.1,74.6,30.06,SE,129,1.0,8.0,89,0.00,,,0.08,Weather View 32 v70,2013-07-19 21:59:00,
2013-07-19 18:09:00,78.1,74.9,30.06,ESE,102,1.0,8.0,90,0.00,,,0.08,Weather View 32 v70,2013-07-19 22:09:00,
2013-07-19 18:17:00,78.1,74.9,30.06,ESE,102,1.0,8.0,90,0.00,,,0.08,Weather View 32 v70,2013-07-19 22:17:00,
2013-07-19 18:19:00,78.0,75.5,30.06,SE,143,7.0,8.0,92,0.00,,,0.08,Weather View 32 v70,2013-07-19 22:19:00,
2013-07-19 18:29:00,77.4,74.6,30.08,SSW,193,2.0,9.0,91,0.00,,,0.08,Weather View 32 v70,2013-07-19 22:29:00,
2013-07-19 18:39:00,77.7,74.8,30.08,WSW,246,5.0,12.0,91,0.00,,,0.08,Weather View 32 v70,2013-07-19 22:39:00,
2013-07-19 18:49:00,76.7,72.2,30.08,SW,219,5.0,14.0,86,0.00,,,0.08,Weather View 32 v70,2013-07-19 22:49:00,
2013-07-19 18:59:00,76.1,72.3,30.08,South,184,0.0,14.0,88,0.00,,,0.08,Weather View 32 v70,2013-07-19 22:59:00,
2013-07-19 19:09:00,75.4,71.9,30.07,WSW,240,0.0,14.0,89,0.00,,,0.08,Weather View 32 v70,2013-07-19 23:09:00,
2013-07-19 19:18:00,75.4,71.9,30.07,WSW,240,0.0,14.0,89,0.00,,,0.08,Weather View 32 v70,2013-07-19 23:18:00,
2013-07-19 19:29:00,74.3,71.5,30.07,SW,226,0.0,14.0,91,0.00,,,0.08,Weather View 32 v70,2013-07-19 23:29:00,
2013-07-19 19:39:00,73.9,71.1,30.07,South,185,1.0,14.0,91,0.00,,,0.08,Weather View 32 v70,2013-07-19 23:39:00,
2013-07-19 19:49:00,73.9,71.4,30.07,SSE,153,0.0,8.0,92,0.01,,,0.09,Weather View 32 v70,2013-07-19 23:49:00,
2013-07-19 19:59:00,73.6,71.1,30.06,South,177,0.0,5.0,92,0.01,,,0.09,Weather View 32 v70,2013-07-19 23:59:00,
2013-07-19 20:09:00,73.4,70.9,30.06,South,188,0.0,5.0,92,0.01,,,0.09,Weather View 32 v70,2013-07-20 00:09:00,
2013-07-19 20:19:00,73.4,70.9,30.06,South,188,0.0,5.0,92,0.01,,,0.09,Weather View 32 v70,2013-07-20 00:19:00,
2013-07-19 20:29:00,73.0,70.8,30.06,SSW,194,0.0,4.0,93,0.02,,,0.10,Weather View 32 v70,2013-07-20 00:29:00,
2013-07-19 20:39:00,73.0,71.2,30.06,SSW,194,0.0,4.0,94,0.02,,,0.10,Weather View 32 v70,2013-07-20 00:39:00,
2013-07-19 20:49:00,72.9,71.1,30.06,SSE,167,0.0,4.0,94,0.01,,,0.10,Weather View 32 v70,2013-07-20 00:49:00,
2013-07-19 20:59:00,73.1,71.3,30.07,South,178,0.0,4.0,94,0.01,,,0.10,Weather View 32 v70,2013-07-20 00:59:00,
2013-07-19 21:09:00,73.6,71.8,30.08,SSE,156,0.0,2.0,94,0.01,,,0.10,Weather View 32 v70,2013-07-20 01:09:00,
2013-07-19 21:19:00,73.6,71.8,30.08,SSE,156,0.0,2.0,94,0.01,,,0.10,Weather View 32 v70,2013-07-20 01:19:00,
2013-07-19 21:29:00,75.0,73.1,30.09,SSE,148,9.0,9.0,94,0.00,,,0.10,Weather View 32 v70,2013-07-20 01:29:00,
2013-07-19 21:39:00,75.0,72.8,30.09,ESE,119,5.0,9.0,93,0.00,,,0.10,Weather View 32 v70,2013-07-20 01:39:00,
2013-07-19 21:49:00,74.9,73.0,30.09,SE,134,3.0,9.0,94,0.00,,,0.10,Weather View 32 v70,2013-07-20 01:49:00,
2013-07-19 21:59:00,74.8,72.9,30.09,SE,125,1.0,9.0,94,0.00,,,0.10,Weather View 32 v70,2013-07-20 01:59:00,
2013-07-19 22:09:00,74.8,72.9,30.09,SSE,153,4.0,9.0,94,0.00,,,0.10,Weather View 32 v70,2013-07-20 02:09:00,
2013-07-19 22:20:00,74.7,72.8,30.08,SE,134,4.0,9.0,94,0.00,,,0.10,Weather View 32 v70,2013-07-20 02:20:00,
2013-07-19 22:29:00,74.5,72.3,30.09,SSE,162,8.0,10.0,93,0.00,,,0.10,Weather View 32 v70,2013-07-20 02:29:00,
2013-07-19 22:39:00,74.6,72.4,30.09,SSE,158,5.0,10.0,93,0.00,,,0.10,Weather View 32 v70,2013-07-20 02:39:00,
2013-07-19 22:49:00,74.8,72.6,30.09,SE,133,3.0,10.0,93,0.00,,,0.10,Weather View 32 v70,2013-07-20 02:49:00,
2013-07-19 22:59:00,74.7,72.5,30.09,SE,131,2.0,10.0,93,0.00,,,0.10,Weather View 32 v70,2013-07-20 02:59:00,
2013-07-19 23:09:00,74.5,72.3,30.09,SE,142,4.0,10.0,93,0.00,,,0.10,Weather View 32 v70,2013-07-20 03:09:00,
2013-07-19 23:19:00,74.3,72.1,30.09,South,175,3.0,10.0,93,0.00,,,0.10,Weather View 32 v70,2013-07-20 03:19:00,
2013-07-19 23:29:00,74.0,71.8,30.09,SE,140,3.0,9.0,93,0.00,,,0.10,Weather View 32 v70,2013-07-20 03:29:00,
2013-07-19 23:39:00,74.1,72.3,30.09,SSE,160,1.0,8.0,94,0.00,,,0.10,Weather View 32 v70,2013-07-20 03:39:00,
2013-07-19 23:49:00,74.1,72.3,30.09,ESE,122,1.0,8.0,94,0.00,,,0.10,Weather View 32 v70,2013-07-20 03:49:00,
2013-07-19 23:59:00,74.2,72.4,30.08,SE,136,0.0,8.0,94,0.00,,,0.00,Weather View 32 v70,2013-07-20 03:59:00,